Location: St. Louis
(38.6270°N, 90.1994°W)
Time: 04:42:44
(UTC-06:00)

Vanguard 2 Rocket - Pass Details

Date: 05 December 2021
Orbit: 554 x 3325 km, 32.9° (Epoch: 21 January)

Event Time Altitude Azimuth Distance (km) Brightness Sun altitude
Rises 16:58:05 0° 230° (SW) 2,919 11.5 -4.1°
Reaches altitude 10° 17:00:14 10° 219° (SW) 2,167 10.1 -4.5°
Maximum altitude 17:04:41 34° 154° (SSE) 1,456 8.0 -5.3°
Drops below altitude 10° 17:11:29 10° 93° (E) 3,353 9.2 -6.5°
Enters shadow 17:13:39 - 89° (E) 4,120 9.7 -6.9°
